#timestamp,LO_Frequency,Hit 
1504980015.1,286046989.7,N
1504980016.0,286046989.7,N
1504980035.8,286046988.6,N
1504980055.6,286046987.4,N
1504980075.5,286046988.2,N
1504980095.3,286046987.7,N
1504980115.1,286046987.4,N
1504980135.9,286046989.9,N
1504980155.7,286046985.9,P
1504980175.5,286046995.9,N
1504980195.4,286046993.3,N
1504980215.2,286046996.1,N
1504980235.0,286046997.7,N
1504980235.9,286046997.7,N
1504980255.8,286046995.8,N
1504980275.6,286046995.3,N
1504980295.4,286046999.2,N
1504980315.2,286046998.5,N
1504980335.1,286046998.5,N
1504980336.0,286046998.5,N
1504980355.8,286047000.9,N
1504980375.6,286046999.8,N
1504980395.5,286047005.8,N
1504980415.3,286047010.4,N
1504980435.1,286047012.9,N
1504980455.9,286047014.9,N
1504980475.7,286047014.1,N
1504980495.5,286047015.7,N
1504980515.4,286047018.2,N
1504980535.2,286047020.2,N
1504980555.0,286047016.0,N
1504980555.9,286047016.0,N
1504980575.8,286047020.4,N
1504980595.6,286047018.4,N
1504980615.4,286047018.3,N
1504980635.3,286047017.8,N
1504980655.1,286047017.3,N
1504980656.0,286047017.3,N
1504980675.8,286047023.3,N
1504980695.7,286047022.0,N
1504980715.5,286047021.0,N
1504980735.3,286047023.2,N
1504980755.1,286047024.7,N
1504980775.9,286047026.1,N
1504980795.7,286047026.7,N
1504980815.5,286047023.9,N
1504980835.4,286047023.8,N
1504980855.2,286047023.8,N
1504980875.1,286047024.7,P
1504980876.0,286047024.7,P
1504980895.8,286047008.7,N
1504980915.6,286047006.5,N
1504980935.4,286047006.9,N
1504980955.3,286047008.5,N
1504980975.1,286047010.0,N
1504980995.8,286047010.8,N
1504981015.7,286047009.7,N
1504981035.5,286047012.4,N
1504981055.3,286047012.1,N
1504981075.2,286047009.3,N
1504981095.9,286047010.7,N
1504981115.7,286047011.6,N
1504981135.6,286047011.1,N
1504981155.4,286047009.5,N
1504981175.2,286047010.1,N
1504981195.1,286047013.0,N
1504981196.0,286047013.0,N
1504981215.8,286047013.5,N
1504981235.6,286047011.6,N
1504981255.4,286047010.2,N
1504981275.3,286047010.2,N
1504981295.1,286047010.4,N
1504981315.8,286047008.5,N
1504981335.7,286047008.4,N
1504981355.5,286047008.3,N
1504981375.3,286047013.2,P
1504981395.2,286047005.7,P
1504981415.0,286047006.4,N
1504981415.9,286047006.4,N
1504981435.7,286047004.5,N
1504981455.6,286047004.8,N
1504981475.4,286047005.8,N
1504981495.2,286047002.0,N
1504981515.1,286046999.4,N
1504981516.0,286046999.4,N
1504981535.8,286046997.5,N
1504981555.6,286046993.4,N
1504981575.5,286046990.5,N
1504981595.3,286046989.8,N
1504981615.1,286046987.1,N
1504981635.9,286046988.3,N
1504981655.7,286046987.0,N
1504981675.5,286046987.1,N
1504981695.4,286046987.6,N
1504981715.2,286046989.2,N
1504981735.0,286046987.4,N
1504981735.9,286046987.4,N
1504981755.8,286046986.1,N
1504981775.6,286046985.9,N
1504981795.4,286046985.5,N
1504981815.3,286046984.9,N
1504981835.1,286046982.5,N
1504981836.0,286046982.5,N
1504981855.8,286046982.1,N
1504981875.7,286046983.3,N
1504981895.5,286046977.5,N
1504981915.3,286046980.7,N
1504981935.1,286046985.2,N
1504981955.9,286046984.9,N
1504981975.7,286046980.5,N
1504981995.5,286046981.7,N
1504982015.4,286046980.9,N
1504982035.2,286046977.9,P
1504982055.0,286046990.3,N
1504982056.0,286046990.3,N
1504982075.8,286046992.6,N
1504982095.6,286046990.6,N
1504982115.4,286046992.6,N
1504982135.3,286046990.1,N
1504982155.1,286046991.1,N
1504982175.8,286046991.4,N
1504982195.7,286046989.2,N
1504982215.5,286046991.1,N
1504982235.3,286046991.6,N
1504982255.2,286046986.0,P
1504982275.0,286046997.7,N
1504982275.9,286046997.7,N
1504982295.7,286046994.1,N
1504982315.6,286046994.1,N
1504982335.4,286046998.4,N
1504982355.2,286047001.9,N
1504982375.1,286047003.4,N
1504982376.0,286047003.4,N
1504982395.8,286047007.4,N
1504982415.6,286047010.8,N
1504982435.5,286047013.9,N
1504982455.3,286047012.4,N
1504982475.1,286047012.0,N
1504982495.9,286047014.0,N
1504982515.7,286047013.7,N
1504982535.5,286047012.6,N
1504982555.4,286047014.1,N
1504982575.2,286047018.8,N
1504982595.0,286047017.6,N
1504982595.9,286047017.6,N
1504982615.7,286047021.6,N
1504982635.6,286047021.0,N
1504982655.4,286047019.4,N
1504982675.2,286047022.6,N
1504982695.1,286047024.1,N
1504982696.0,286047024.1,N
1504982715.8,286047024.7,N
1504982735.6,286047027.1,N
1504982755.5,286047028.4,N
1504982775.3,286047028.3,N
1504982795.1,286047028.7,N
1504982815.9,286047027.2,N
1504982835.7,286047026.6,N
1504982855.5,286047022.7,N
1504982875.4,286047024.7,N
1504982895.2,286047024.1,P
1504982915.0,286047010.0,P
1504982915.9,286047010.0,N
1504982935.8,286047009.6,N
1504982955.6,286047008.9,N
1504982975.4,286047006.9,N
1504982995.3,286047010.8,N
1504983015.1,286047010.6,N
1504983016.0,286047010.6,N
1504983035.8,286047009.2,N
1504983055.7,286047008.0,N
1504983075.5,286047008.6,N
1504983095.3,286047008.6,N
1504983115.2,286047004.8,N
1504983135.9,286047005.6,N
1504983155.7,286047006.9,N
1504983175.5,286047006.2,N
1504983195.4,286047008.3,N
1504983215.2,286047012.1,N
1504983235.0,286047010.9,N
1504983235.9,286047010.9,N
1504983255.8,286047015.2,P
1504983275.6,286047003.8,N
1504983295.4,286047002.6,N
1504983315.3,286047000.5,N
1504983335.1,286046999.2,N
1504983355.8,286046999.4,N
1504983375.7,286047002.2,N
1504983395.5,286047002.4,N
1504983415.3,286047000.4,N
1504983435.2,286047000.1,N
1504983455.9,286046996.8,N
1504983475.7,286046996.0,N
1504983495.6,286046992.3,N
1504983515.4,286046990.3,N
1504983535.2,286046985.6,N
1504983555.0,286046985.4,N
1504983556.0,286046985.4,N
1504983575.8,286046987.8,N
1504983595.6,286046989.8,N
